FW2530 Weather Reports


Display with metric or nautical units.
time (UTC)temp
F
wind
direction
speed
MPH
gust
MPH
rain 1hr
in
rain 24hr
in
rain mn
in
humidity
%
barometer
mb
20260904051037 68 360 0.0 1.0 0.01 1.20 0.01 80 1015.7
20260904050517 68 360 0.0 1.0 0.01 1.20 0.01 80 1015.6
20260904050016 68 360 0.0 1.0 0.01 1.20 0.01 80 1015.5
20260904045516 68 360 0.0 1.0 0.01 1.20 0.01 80 1015.5
20260904045017 68 360 0.0 1.0 0.01 1.20 0.01 80 1015.5
20260904044516 68 360 0.0 1.0 0.01 1.20 0.01 80 1015.6
20260904044017 68 360 0.0 1.0 0.01 1.20 0.01 80 1015.5
20260904043537 68 360 0.0 1.0 0.01 1.20 0.01 80 1015.5
20260904043038 68 360 0.0 1.0 0.01 1.20 0.01 80 1015.5
20260904042516 68 360 0.0 1.0 0.01 1.20 0.01 80 1015.3
20260904042016 68 360 0.0 1.0 0.01 1.20 0.01 80 1015.1
20260904041516 68 360 0.0 0.0 0.01 1.20 0.01 80 1015.0
20260904041037 68 360 0.0 3.0 0.00 1.20 0.00 80 1015.1
20260904040516 68 360 0.0 1.0 0.00 1.20 0.00 80 1015.2
20260904040017 68 360 0.0 1.0 0.00 1.20 0.00 80 1015.2
20260904035517 68 360 1.0 1.0 0.00 1.20 1.20 80 1015.1
20260904035016 68 360 1.0 4.0 0.00 1.20 1.20 80 1015.1
20260904034516 68 360 0.0 3.0 0.00 1.20 1.20 80 1015.1
20260904034017 68 360 1.0 3.0 0.00 1.20 1.20 80 1015.0
20260904033517 68 360 2.0 7.0 0.00 1.20 1.20 80 1015.1
20260904033017 68 360 1.0 7.0 0.00 1.20 1.20 80 1014.9
20260904032517 68 360 1.0 4.0 0.00 1.20 1.20 80 1014.9
20260904032037 68 360 1.0 4.0 0.00 1.20 1.20 80 1014.9
20260904031516 68 360 1.0 3.0 0.00 1.20 1.20 80 1014.9
20260904031016 68 360 1.0 3.0 0.00 1.20 1.20 80 1015.0
20260904030537 68 360 1.0 4.0 0.00 1.20 1.20 80 1015.0
20260904030016 68 360 0.0 4.0 0.00 1.20 1.20 80 1014.9
20260904025517 67 0 0.0 0.0 0.00 1.20 1.20 80 1015.0
20260904025016 67 0 0.0 0.0 0.00 1.20 1.20 80 1014.9
20260904024516 68 0 0.0 0.0 0.00 1.20 1.20 80 1014.7
20260904024016 68 0 0.0 0.0 0.00 1.20 1.20 80 1014.7
20260904023517 68 0 0.0 0.0 0.00 1.20 1.20 79 1014.5
20260904023017 68 0 0.0 0.0 0.00 1.20 1.20 79 1014.7
20260904022517 68 0 0.0 0.0 0.00 1.20 1.20 79 1014.8
20260904022037 68 0 0.0 0.0 0.00 1.20 1.20 79 1014.7
20260904021517 68 0 0.0 0.0 0.00 1.20 1.20 79 1014.9
20260904021016 68 0 0.0 0.0 0.00 1.24 1.20 79 1014.9
20260904020517 68 0 0.0 0.0 0.00 1.28 1.20 79 1015.0
20260904020016 68 0 0.0 0.0 0.00 1.28 1.20 79 1014.9
20260904015516 68 0 0.0 0.0 0.00 1.28 1.20 79 1014.9
20260904015038 68 0 0.0 0.0 0.00 1.28 1.20 79 1014.9
20260904014516 68 0 0.0 0.0 0.00 1.28 1.20 79 1014.9
20260904014016 68 0 0.0 0.0 0.00 1.28 1.20 79 1014.7
20260904013516 68 0 0.0 0.0 0.00 1.28 1.20 79 1014.6
20260904013017 68 0 0.0 0.0 0.00 1.28 1.20 79 1014.4
20260904012516 68 0 0.0 0.0 0.00 1.28 1.20 79 1014.4
20260904012037 68 0 0.0 0.0 0.00 1.28 1.20 79 1014.4
20260904011516 68 0 0.0 0.0 0.00 1.28 1.20 79 1014.3
20260904011037 68 0 0.0 0.0 0.00 1.28 1.20 79 1014.3
20260904010516 68 0 0.0 0.0 0.00 1.28 1.20 79 1014.3
20260904010037 68 0 0.0 0.0 0.00 1.28 1.20 79 1014.2
20260904005516 68 0 0.0 0.0 0.00 1.28 1.20 79 1014.1
20260904005037 69 0 0.0 0.0 0.00 1.28 1.20 79 1014.2
20260904004516 69 0 0.0 0.0 0.00 1.28 1.20 79 1014.3
20260904004016 69 0 0.0 0.0 0.00 1.28 1.20 79 1014.0
20260904003516 69 0 0.0 0.0 0.00 1.28 1.20 78 1014.0
20260904003016 69 0 0.0 0.0 0.00 1.28 1.20 78 1014.0
20260904002516 69 0 0.0 0.0 0.00 1.29 1.20 78 1014.0
20260904002016 69 0 0.0 0.0 0.00 1.29 1.20 78 1014.0
20260904001537 69 0 0.0 0.0 0.00 1.29 1.20 78 1014.0
20260904001016 69 0 0.0 0.0 0.00 1.29 1.20 78 1013.9
20260904000516 69 0 0.0 0.0 0.00 1.29 1.20 78 1013.8
20260904000037 69 0 0.0 0.0 0.00 1.29 1.20 78 1013.9
20260903235516 69 0 0.0 0.0 0.00 1.29 1.20 78 1013.7
20260903235037 69 0 0.0 0.0 0.00 1.29 1.20 78 1013.7
20260903234537 69 0 0.0 0.0 0.00 1.29 1.20 78 1013.6
20260903234016 69 0 0.0 0.0 0.00 1.29 1.20 78 1013.4
20260903233516 69 0 0.0 0.0 0.00 1.29 1.20 78 1013.8
20260903233016 69 360 0.0 0.0 0.00 1.29 1.20 78 1013.7
20260903232516 69 350 0.0 1.0 0.00 1.29 1.20 78 1013.8
20260903232037 69 352 1.0 3.0 0.00 1.29 1.20 77 1013.7
20260903231537 69 355 1.0 5.0 0.00 1.29 1.20 77 1013.7
20260903231016 69 360 0.0 3.0 0.00 1.29 1.20 77 1013.2
20260903230516 69 0 0.0 0.0 0.00 1.29 1.20 77 1012.9
20260903230017 69 0 0.0 0.0 0.01 1.29 1.20 77 1012.9
20260903225517 69 0 0.0 0.0 0.01 1.29 1.20 77 1012.8
20260903225016 69 0 0.0 0.0 0.02 1.29 1.20 77 1013.0
20260903224516 69 0 0.0 0.0 0.02 1.29 1.20 77 1012.8
20260903224016 69 360 0.0 0.0 0.03 1.29 1.20 77 1012.9
20260903223516 69 360 1.0 3.0 0.03 1.29 1.20 75 1012.7
20260903223016 69 360 0.0 4.0 0.04 1.29 1.20 75 1012.4
20260903222537 69 360 1.0 1.0 0.05 1.29 1.20 75 1012.4
20260903222016 69 360 2.0 7.0 0.06 1.29 1.20 75 1012.3
20260903221516 69 360 2.0 5.0 0.08 1.29 1.20 75 1012.5
20260903221016 69 360 2.0 4.0 0.09 1.29 1.20 75 1012.7
20260903220516 70 360 1.0 7.0 0.10 1.29 1.20 75 1013.0
20260903220017 70 360 0.0 0.0 0.10 1.28 1.19 75 1013.3
20260903215516 70 360 0.0 3.0 0.11 1.29 1.19 77 1013.5
20260903215016 70 360 0.0 3.0 0.13 1.31 1.18 77 1013.6
20260903214516 70 360 0.0 3.0 0.22 1.31 1.17 77 1013.7
20260903214016 70 356 0.0 3.0 0.40 1.30 1.17 77 1013.6
20260903213516 70 359 1.0 3.0 0.91 1.30 1.17 77 1014.0
20260903213037 70 360 2.0 7.0 0.94 1.29 1.16 78 1014.0
20260903212516 70 360 3.0 7.0 0.94 1.28 1.15 78 1014.4
20260903212016 70 360 2.0 7.0 1.04 1.28 1.14 78 1014.3
20260903211517 70 360 1.0 4.0 1.11 1.25 1.12 79 1013.9
20260903211016 70 360 1.0 4.0 1.09 1.24 1.10 79 1014.0
20260903210516 70 360 2.0 8.0 1.09 1.23 1.09 79 1014.2
20260903210016 70 360 4.0 5.0 1.08 1.22 1.09 79 1014.3
20260903205516 70 360 5.0 15.0 1.07 1.21 1.08 80 1014.5
20260903205016 71 360 7.0 20.0 1.05 1.19 1.06 80 1014.0
20260903204537 71 360 14.0 19.0 0.94 1.09 0.96 58 1014.1
20260903203516 77 360 5.0 27.0 0.24 0.39 0.25 79 1015.7
20260903203037 77 360 2.0 5.0 0.20 0.35 0.21 78 1014.4
20260903202516 78 360 1.0 5.0 0.20 0.34 0.20 78 1013.7
20260903202016 78 360 2.0 5.0 0.09 0.24 0.10 78 1013.4
20260903201516 78 360 1.0 11.0 0.00 0.14 0.01 77 1014.0
20260903201016 79 360 0.0 5.0 0.00 0.14 0.01 77 1013.7
20260903200516 79 360 0.0 1.0 0.00 0.14 0.01 75 1013.5
20260903200016 79 360 0.0 3.0 0.00 0.14 0.01 75 1013.3
20260903195516 79 360 0.0 1.0 0.00 0.14 0.01 75 1013.3
20260903195016 79 360 0.0 1.0 0.00 0.14 0.01 74 1013.0
20260903194516 80 360 1.0 5.0 0.00 0.14 0.01 74 1013.2
20260903194016 80 360 0.0 4.0 0.00 0.14 0.01 74 1013.3
20260903193516 80 0 0.0 0.0 0.00 0.14 0.01 74 1013.1
20260903193016 80 360 0.0 0.0 0.00 0.14 0.01 73 1012.9
20260903192516 80 360 0.0 1.0 0.00 0.14 0.01 73 1012.9
20260903192016 80 360 0.0 3.0 0.00 0.14 0.01 73 1012.9
20260903191516 80 360 0.0 3.0 0.00 0.14 0.01 73 1013.0
20260903191016 80 360 0.0 3.0 0.00 0.14 0.01 72 1013.0
20260903190516 81 360 0.0 3.0 0.00 0.14 0.01 72 1013.0
20260903190016 81 360 1.0 4.0 0.00 0.14 0.01 72 1013.1
20260903185516 81 360 1.0 5.0 0.00 0.14 0.01 71 1012.9
20260903185016 81 360 1.0 5.0 0.00 0.14 0.01 71 1013.1
20260903184516 81 360 1.0 5.0 0.00 0.14 0.01 71 1013.2
20260903184016 81 360 1.0 4.0 0.00 0.14 0.01 71 1013.1
20260903183516 81 360 3.0 5.0 0.00 0.14 0.01 70 1013.1
20260903183016 82 360 3.0 7.0 0.00 0.14 0.01 70 1013.3
20260903182516 82 360 2.0 8.0 0.00 0.14 0.01 70 1013.6
20260903182016 82 360 1.0 3.0 0.00 0.14 0.01 70 1013.8
20260903181516 82 360 2.0 8.0 0.00 0.14 0.01 70 1013.7
20260903181037 82 360 2.0 5.0 0.00 0.14 0.01 68 1013.8
20260903180537 82 351 2.0 8.0 0.00 0.14 0.01 67 1014.0
20260903180016 83 306 3.0 11.0 0.00 0.14 0.01 66 1014.1
20260903175516 83 277 3.0 8.0 0.00 0.14 0.01 66 1014.1
20260903175016 84 281 3.0 12.0 0.00 0.14 0.01 64 1014.1
20260903174516 84 279 3.0 9.0 0.00 0.14 0.01 64 1014.2
20260903174016 85 280 4.0 13.0 0.00 0.14 0.01 63 1014.3
20260903173516 85 296 4.0 9.0 0.00 0.14 0.01 62 1014.3
20260903173037 85 316 3.0 9.0 0.00 0.14 0.01 62 1014.4
20260903172516 85 336 2.0 11.0 0.00 0.14 0.01 63 1014.4
20260903172017 85 359 2.0 8.0 0.00 0.14 0.01 64 1014.3
20260903171516 84 355 2.0 7.0 0.00 0.14 0.01 64 1014.3
20260903171016 84 331 2.0 7.0 0.00 0.14 0.01 63 1014.3
20260903170517 84 298 2.0 5.0 0.00 0.14 0.01 66 1014.2
20260903170016 83 308 3.0 9.0 0.00 0.14 0.01 42 1014.2
20260903165516 83 321 1.0 7.0 0.00 0.14 0.01 66 1014.1
20260903165037 83 316 1.0 4.0 0.00 0.14 0.01 67 1014.2
20260903164537 83 318 1.0 5.0 0.00 0.14 0.01 64 1014.3
20260903164037 83 357 1.0 4.0 0.00 0.14 0.01 66 1014.3
20260903163516 83 8 2.0 8.0 0.00 0.14 0.01 67 1014.5
20260903163016 82 360 2.0 8.0 0.00 0.14 0.01 46 1014.6
20260903162537 81 360 2.0 7.0 0.00 0.14 0.01 68 1014.6
20260903162037 81 360 2.0 5.0 0.00 0.14 0.01 70 1014.8
20260903161516 80 360 1.0 5.0 0.00 0.14 0.01 70 1014.9
20260903161016 79 360 0.0 4.0 0.00 0.14 0.01 72 1014.5
20260903160516 79 360 1.0 5.0 0.00 0.14 0.01 72 1014.5
20260903160016 78 360 1.0 4.0 0.00 0.14 0.01 73 1014.6
20260903155516 78 360 0.0 3.0 0.00 0.14 0.01 73 1014.6
20260903155016 77 360 1.0 4.0 0.00 0.14 0.01 74 1014.5
20260903154516 77 360 1.0 4.0 0.00 0.14 0.01 74 1014.2
20260903154016 76 360 1.0 5.0 0.00 0.14 0.01 75 1014.1
20260903153516 76 360 1.0 5.0 0.00 0.14 0.01 78 1014.1
20260903153016 75 24 1.0 5.0 0.00 0.14 0.01 78 1014.3
20260903152515 75 128 1.0 5.0 0.00 0.14 0.01 79 1014.3
20260903152016 75 130 1.0 4.0 0.00 0.14 0.01 79 1014.3
20260903151516 75 130 2.0 4.0 0.00 0.14 0.01 79 1014.1
20260903151016 75 136 4.0 7.0 0.00 0.14 0.01 79 1014.1
20260903150537 74 138 4.0 7.0 0.00 0.14 0.01 79 1014.1
20260903150016 74 137 3.0 9.0 0.00 0.14 0.01 79 1014.2
20260903145515 74 91 1.0 4.0 0.00 0.14 0.01 79 1014.2
20260903145016 74 18 3.0 5.0 0.00 0.14 0.01 80 1014.2
20260903144516 74 15 3.0 5.0 0.00 0.14 0.01 80 1014.1
20260903144016 74 44 2.0 5.0 0.00 0.14 0.01 80 1014.3
20260903143516 73 39 2.0 4.0 0.00 0.14 0.01 80 1014.4
20260903143016 73 16 3.0 4.0 0.00 0.14 0.01 80 1014.2
20260903142516 73 4 2.0 5.0 0.00 0.14 0.01 80 1014.1
20260903142016 73 360 3.0 4.0 0.00 0.14 0.01 80 1014.2
20260903141515 72 1 2.0 5.0 0.00 0.14 0.01 80 1014.2
20260903141015 73 3 1.0 5.0 0.00 0.14 0.01 80 1014.2
20260903140537 72 360 0.0 1.0 0.00 0.14 0.01 80 1014.2
20260903140037 72 0 0.0 0.0 0.00 0.14 0.01 80 1014.2
20260903135515 72 0 0.0 0.0 0.00 0.14 0.01 80 1014.2
20260903135015 72 0 0.0 0.0 0.00 0.14 0.01 80 1014.1
20260903134537 72 0 0.0 0.0 0.00 0.14 0.01 80 1014.1
20260903134016 72 6 0.0 1.0 0.00 0.14 0.01 80 1014.2
20260903133536 72 6 0.0 3.0 0.00 0.14 0.01 80 1014.1
20260903133016 71 0 0.0 0.0 0.00 0.14 0.01 80 1014.2
20260903132516 71 360 0.0 0.0 0.00 0.14 0.01 80 1014.2
20260903132015 71 360 0.0 1.0 0.00 0.14 0.01 80 1014.3
20260903131515 71 360 0.0 1.0 0.00 0.14 0.01 80 1014.3
20260903131016 71 360 1.0 3.0 0.00 0.14 0.01 80 1014.3
20260903130516 71 360 0.0 3.0 0.00 0.14 0.01 80 1014.6
20260903130015 70 0 0.0 0.0 0.00 0.14 0.01 80 1014.6
20260903125536 70 0 0.0 0.0 0.00 0.14 0.01 80 1014.6
20260903125015 70 360 0.0 0.0 0.00 0.14 0.01 80 1014.6
20260903124537 70 360 0.0 1.0 0.00 0.14 0.01 80 1014.5
20260903124016 70 360 0.0 3.0 0.00 0.14 0.01 79 1014.5
20260903123536 70 360 0.0 3.0 0.00 0.15 0.01 80 1014.6
20260903123016 70 360 0.0 1.0 0.00 0.15 0.01 80 1014.6
20260903122516 69 360 0.0 3.0 0.00 0.15 0.01 80 1014.5
20260903122016 69 360 1.0 3.0 0.00 0.15 0.01 79 1014.5
20260903121516 69 360 0.0 3.0 0.00 0.15 0.01 79 1014.5
20260903121015 69 360 0.0 1.0 0.00 0.15 0.01 79 1014.4
20260903120516 69 360 0.0 3.0 0.00 0.15 0.01 79 1014.3
20260903120036 69 0 0.0 0.0 0.00 0.18 0.01 79 1014.5
20260903115515 69 0 0.0 0.0 0.00 0.18 0.01 79 1014.3
20260903115015 69 0 0.0 0.0 0.00 0.18 0.01 79 1014.3
20260903114536 69 0 0.0 0.0 0.00 0.18 0.01 79 1014.2
20260903114015 69 360 0.0 0.0 0.01 0.18 0.01 79 1014.3
20260903113515 69 360 0.0 1.0 0.01 0.18 0.01 79 1014.2
20260903113037 69 0 0.0 0.0 0.01 0.18 0.01 79 1014.2
20260903112536 69 0 0.0 0.0 0.01 0.18 0.01 79 1014.1
20260903112015 69 0 0.0 0.0 0.01 0.18 0.01 79 1014.1
20260903111515 69 0 0.0 0.0 0.01 0.18 0.01 79 1014.1
20260903111015 69 0 0.0 0.0 0.01 0.18 0.01 79 1014.1
20260903110536 69 0 0.0 0.0 0.01 0.18 0.01 79 1014.0
20260903110037 68 0 0.0 0.0 0.01 0.18 0.01 79 1013.9
20260903105515 68 0 0.0 0.0 0.01 0.18 0.01 79 1013.9
20260903105016 68 0 0.0 0.0 0.01 0.18 0.01 79 1013.7
20260903104515 68 0 0.0 0.0 0.01 0.18 0.01 79 1013.7
20260903104015 68 0 0.0 0.0 0.00 0.17 0.00 79 1013.7
20260903103515 68 0 0.0 0.0 0.00 0.17 0.00 79 1013.8
20260903103016 68 0 0.0 0.0 0.00 0.17 0.00 79 1013.8
20260903102515 68 0 0.0 0.0 0.00 0.17 0.00 78 1013.8
20260903102015 68 0 0.0 0.0 0.00 0.17 0.00 79 1013.8
20260903101515 68 360 0.0 0.0 0.00 0.17 0.00 78 1013.7
20260903101037 68 360 0.0 3.0 0.00 0.17 0.00 79 1013.7
20260903100515 68 360 0.0 3.0 0.00 0.17 0.00 79 1013.8
20260903100037 68 360 0.0 3.0 0.00 0.17 0.00 78 1013.8
20260903095516 67 360 0.0 3.0 0.00 0.17 0.00 78 1013.8
20260903095015 67 0 0.0 0.0 0.00 0.17 0.00 78 1013.9
20260903094515 67 0 0.0 0.0 0.00 0.17 0.00 78 1013.7
20260903094015 67 0 0.0 0.0 0.00 0.17 0.00 78 1013.7
20260903093515 67 0 0.0 0.0 0.00 0.17 0.00 78 1013.5
20260903093015 67 0 0.0 0.0 0.00 0.17 0.00 78 1013.4
20260903092536 67 0 0.0 0.0 0.00 0.17 0.00 77 1013.3
20260903092015 67 0 0.0 0.0 0.00 0.17 0.00 77 1013.1
20260903091537 67 0 0.0 0.0 0.00 0.17 0.00 77 1013.1
20260903091016 67 0 0.0 0.0 0.00 0.17 0.00 77 1013.0
20260903090515 67 0 0.0 0.0 0.00 0.17 0.00 77 1013.0
20260903090015 67 0 0.0 0.0 0.00 0.17 0.00 77 1013.1
20260903085515 67 0 0.0 0.0 0.00 0.17 0.00 77 1013.1
20260903085015 67 0 0.0 0.0 0.00 0.19 0.00 77 1012.9
20260903084536 67 0 0.0 0.0 0.00 0.19 0.00 77 1013.0
20260903084015 67 0 0.0 0.0 0.00 0.19 0.00 77 1013.0
20260903083536 67 0 0.0 0.0 0.00 0.19 0.00 77 1013.0
20260903083016 67 0 0.0 0.0 0.00 0.19 0.00 77 1012.8
20260903082536 67 0 0.0 0.0 0.00 0.19 0.00 77 1012.7
20260903082015 68 0 0.0 0.0 0.00 0.19 0.00 77 1012.5
20260903081515 68 0 0.0 0.0 0.00 0.19 0.00 77 1012.5
20260903081015 68 0 0.0 0.0 0.00 0.19 0.00 77 1012.7
20260903080537 68 0 0.0 0.0 0.00 0.19 0.00 77 1012.7
20260903080015 68 0 0.0 0.0 0.00 0.19 0.00 77 1012.8
20260903075516 68 0 0.0 0.0 0.00 0.19 0.00 77 1012.8
20260903075016 68 0 0.0 0.0 0.00 0.19 0.00 77 1012.9
20260903074515 68 0 0.0 0.0 0.00 0.19 0.00 77 1012.9
20260903074015 68 0 0.0 0.0 0.00 0.19 0.00 77 1012.8
20260903073515 68 0 0.0 0.0 0.00 0.19 0.00 77 1012.6
20260903073036 68 0 0.0 0.0 0.00 0.19 0.00 77 1012.5
20260903072515 68 0 0.0 0.0 0.00 0.19 0.00 77 1012.5
20260903072015 69 0 0.0 0.0 0.00 0.19 0.00 77 1012.4
20260903071515 69 0 0.0 0.0 0.00 0.19 0.00 77 1012.4
20260903071015 69 0 0.0 0.0 0.00 0.19 0.00 77 1012.5
20260903070515 69 0 0.0 0.0 0.00 0.19 0.00 77 1012.5
20260903070015 69 0 0.0 0.0 0.00 0.19 0.00 77 1012.5
20260903065515 69 0 0.0 0.0 0.00 0.19 0.00 77 1012.6
20260903065015 69 0 0.0 0.0 0.00 0.19 0.00 77 1012.7
20260903064515 69 0 0.0 0.0 0.00 0.19 0.00 75 1012.7
20260903064015 70 0 0.0 0.0 0.00 0.19 0.00 77 1012.7
20260903063515 70 0 0.0 0.0 0.00 0.19 0.00 77 1012.8
20260903063015 69 0 0.0 0.0 0.00 0.19 0.00 75 1012.9
20260903062515 69 0 0.0 0.0 0.00 0.19 0.00 75 1013.1
20260903062015 70 0 0.0 0.0 0.00 0.19 0.00 75 1013.2
20260903061536 70 0 0.0 0.0 0.00 0.19 0.00 75 1013.1
20260903061036 70 0 0.0 0.0 0.00 0.19 0.00 75 1013.2
20260903060516 70 0 0.0 0.0 0.00 0.19 0.00 75 1013.3
20260903060015 70 0 0.0 0.0 0.00 0.19 0.00 75 1013.3
20260903055515 70 0 0.0 0.0 0.00 0.19 0.00 75 1013.4
20260903055015 70 0 0.0 0.0 0.00 0.19 0.00 75 1013.3
20260903054536 70 0 0.0 0.0 0.00 0.19 0.00 75 1013.5
20260903054015 70 0 0.0 0.0 0.00 0.19 0.00 75 1013.4
20260903053515 70 0 0.0 0.0 0.00 0.19 0.00 75 1013.5
20260903053015 70 0 0.0 0.0 0.00 0.19 0.00 75 1013.5
20260903052536 70 0 0.0 0.0 0.00 0.19 0.00 75 1013.5
20260903052015 70 0 0.0 0.0 0.00 0.19 0.00 75 1013.4
20260903051515 70 0 0.0 0.0 0.00 0.19 0.00 75 1013.4